Regional Weather Roundup
Issued by NWS

Home | Current Version | Previous Version | Graphics & Text | Print | Product List | Glossary On
Versions: 1 2 3 4 5 6 7 8 9 10 11 12 13 14 15 16 17 18 19 20 21 22 23 24 25 26 27 28 29 30 31 32 33 34 35 36 37 38 39 40 41 42 43 44 45 46 47 48 49 50
000
ASUS43 KLOT 280404
RWRIL

ILLINOIS REGIONAL WEATHER ROUNDUP
NATIONAL WEATHER SERVICE CHICAGO/ROMEOVILLE IL
1100 PM CDT TUE JUN 27 2017

NOTE: "FAIR" INDICATES FEW OR NO CLOUDS BELOW 12,000 FEET WITH NO
SIGNIFICANT WEATHER AND/OR OBSTRUCTIONS TO VISIBILITY.

* THESE STATIONS ARE NOT UNDER NWS QUALITY CONTROL. THEY ALSO MAY NOT
  REPORT WEATHER SUCH AS PRECIPITATION OR FOG.

ILZ001-002-007-009-015-016-024-280500-
NORTHWEST ILLINOIS

CITY           SKY/WX    TMP DP  RH WIND       PRES   REMARKS
MOLINE         CLEAR     62  50  64 S7        29.99R
STERLING*      CLEAR     62  50  64 SE3       30.02R
SAVANNA*       CLEAR     60  49  66 S3        30.00S
$$

ILZ003-004-008-010-011-017-018-280500-
NORTH CENTRAL ILLINOIS

CITY           SKY/WX    TMP DP  RH WIND       PRES   REMARKS
ROCKFORD       PTCLDY    62  46  55 S7        30.02F
FREEPORT*      CLEAR     58  47  66 S7        30.02S
ROCHELLE*      CLEAR     58  47  68 SE7       30.03S
DE KALB*       CLEAR     58  48  69 S7        30.04S
$$

ILZ005-006-012>014-019>023-280500-
NORTHEAST ILLINOIS

CITY           SKY/WX    TMP DP  RH WIND       PRES   REMARKS
CHICAGO-OHARE  PTCLDY    67  45  45 S9        30.03S
CHICAGO-MIDWAY PTCLDY    69  46  43 S6        30.04S
AURORA         PTCLDY    61  48  62 S6        30.04S
LANSING*       CLEAR     59  46  61 S6        30.05S
JOLIET*        CLEAR     59  52  78 CALM      30.05S
WAUKEGAN       CLEAR     58  53  84 CALM      30.02S
DUPAGE AIRPORT PTCLDY    60  49  66 S6        30.03S
WHEELING       CLEAR     61  51  70 SE3       30.04S
MORRIS*        PTCLDY    62  49  62 S3        30.03S
$$

LMZ740>746-280500-
SOUTHERN LAKE MICHIGAN

STATION/POSITION SKY/WX   TEMP    WIND        PRES    VSBY  WAVE
                          AIR SEA DIR/SP/G                  HT/PER
                          (F)     (DEG/KT/KT) (MB)    (MI)  (FT/S)
SOUTHERN BUOY              63 61  160/ 10/ 12 1016.8          1/ 3
WILMETTE HARBOR            65 64  170/  6/  8   N/A           1/ 3
HARRISON CRIB              69     200/  9/  9   N/A
BURNHAM HARBOR             69                   N/A
CALUMET HARBOR             68     170/  3/  4 1016.8F
BURNS HARBOR               67     180/  7/  9 1017.9S
MICHIGAN CITY              65     140/  8/  9   N/A
MICHIGAN CITY 6N           66 66  160/ 10/ 12   N/A           1
ST. JOSEPH                 68 69  160/ 12/ 14 1017.7R         1
$$

ILZ025>027-034>036-040-047-049-050-058-095>099-280500-
WEST-CENTRAL ILLINOIS

CITY           SKY/WX    TMP DP  RH WIND       PRES   REMARKS
QUINCY         CLEAR     67  53  61 SE9       29.99S
GALESBURG*     CLEAR     62  51  68 SE3       30.02R
MACOMB*        CLEAR     59  53  80 S7        30.02S
PITTSFIELD*    CLEAR     65  55  68 SE5       30.02S
$$

ILZ028>032-037-038-041>044-048-051>054-059>061-280500-
CENTRAL ILLINOIS

CITY           SKY/WX    TMP DP  RH WIND       PRES   REMARKS
PONTIAC        CLEAR     59  53  79 SE8       30.05S
BLOOMINGTON    CLEAR     60  50  69 S10       30.05F
DECATUR        CLEAR     64  49  57 SE9       30.06S
PEORIA         CLEAR     65  49  56 SE5       30.02S
LACON*         CLEAR     64  49  57 SE9       30.01S
LINCOLN*       CLEAR     62  53  72 CALM      30.03F
SPRINGFIELD    CLEAR     66  53  63 SE7       30.03S
TAYLORVILLE    NOT AVBL
$$

ILZ033-039-045-046-055>057-062-063-280500-
EAST-CENTRAL ILLINOIS

CITY           SKY/WX    TMP DP  RH WIND       PRES   REMARKS
CHAMPAIGN      PTCLDY    57  49  74 SE7       30.07S
RANTOUL*       CLEAR     62  51  68 S5        30.08R
MATTOON        CLEAR     61  53  75 SE5       30.07S
PARIS*         CLEAR     55  52  89 SE3       30.10S
$$

ILZ079-100>102-280500-
SOUTHWEST ILLINOIS

CITY           SKY/WX    TMP DP  RH WIND       PRES   REMARKS
BELLEVILLE     CLEAR     67  54  62 CALM      30.06R
CAHOKIA*       CLEAR     70  52  52 SE6       30.04R
SPARTA*        PTCLDY    65  55  68 SE5       30.07R
$$

ILZ064>066-069>071-074>076-080>082-084>086-088>090-092>094-280500-
SOUTH-CENTRAL ILLINOIS

CITY           SKY/WX    TMP DP  RH WIND       PRES   REMARKS
CARBONDALE     CLEAR     66  58  75 SE6       30.07R
CAIRO*         PTCLDY    69  59  72 SE3       30.07S
EFFINGHAM*     PTCLDY    61  55  83 E3        30.09S
MARION         PTCLDY    64  57  77 SE6       30.08S
MT. VERNON     CLEAR     62  54  74 CALM      30.08R
CENTRALIA*     CLEAR     64  55  73 SE3       30.06S
SALEM*         CLEAR     67  53  59 SE5       30.08R
METROPOLIS*    CLEAR     63  60  90 CALM      30.09S
$$

ILZ067-068-072-073-078-083-087-091-280500-
SOUTHEAST ILLINOIS

CITY           SKY/WX    TMP DP  RH WIND       PRES   REMARKS
LAWRENCEVILLE  CLEAR     61  56  83 E5        30.10R
FLORA*         CLEAR     61  55  80 SE3       30.09S
FAIRFIELD*     CLEAR     60  56  85 CALM      30.08S
HARRISBURG*    CLEAR     61  59  93 CALM      30.09S
ROBINSON*      CLEAR     56  53  91 CALM      30.10S
CARMI*         CLEAR     62  58  88 CALM      30.09R
$$

ABBREVIATIONS USED IN REMARKS
   TC - TEMPERATURE IN CELSIUS
  WCI - WIND CHILL INDEX
   HX - HEAT INDEX
  VSB - VISIBILITY
$$





USA.gov is the U.S. government's official web portal to all federal, state and local government web resources and services.